EW9120 Weather Reports


Display with metric or nautical units.
time (UTC)temp
F
wind
direction
speed
MPH
gust
MPH
rain 1hr
in
rain 24hr
in
rain mn
in
humidity
%
barometer
mb
20190123214011 34 90 0.0 1.0 0.00 0.01 0.01 82 928.1
20190123213510 34 90 0.0 1.0 0.00 0.01 0.01 82 928.0
20190123213011 34 90 0.0 2.0 0.00 0.01 0.01 82 927.9
20190123212509 33 90 1.0 2.0 0.00 0.01 0.01 82 928.0
20190123212011 33 90 0.0 1.0 0.00 0.01 0.01 82 927.8
20190123211509 34 90 1.0 2.0 0.00 0.01 0.01 82 927.8
20190123211011 34 315 0.0 2.0 0.00 0.01 0.01 82 927.8
20190123210509 34 89 0.0 2.0 0.00 0.01 0.01 81 927.8
20190123210010 34 292 0.0 1.0 0.00 0.01 0.01 82 927.9
20190123205509 34 270 0.0 1.0 0.00 0.01 0.01 82 927.9
20190123205011 34 270 0.0 1.0 0.00 0.01 0.01 82 927.9
20190123204508 34 326 0.0 1.0 0.00 0.01 0.01 81 927.9
20190123204011 34 0 0.0 2.0 0.00 0.01 0.01 82 928.0
20190123203510 34 354 0.0 1.0 0.00 0.01 0.01 82 928.1
20190123203012 34 0 0.0 3.0 0.00 0.01 0.01 82 928.3
20190123202509 34 131 1.0 3.0 0.00 0.01 0.01 81 928.4
20190123202013 34 4 1.0 3.0 0.00 0.01 0.01 81 928.2
20190123201509 34 339 0.0 3.0 0.00 0.01 0.01 81 928.3
20190123201012 34 23 1.0 3.0 0.00 0.01 0.01 81 928.6
20190123200508 34 343 0.0 3.0 0.00 0.01 0.01 81 928.7
20190123200011 34 36 2.0 5.0 0.00 0.01 0.01 81 928.5
20190123195510 34 214 1.0 2.0 0.00 0.01 0.01 81 928.5
20190123195011 34 202 0.0 3.0 0.00 0.01 0.01 81 928.6
20190123194509 34 27 1.0 2.0 0.00 0.01 0.01 81 928.5
20190123194020 34 19 1.0 2.0 0.00 0.01 0.01 80 928.7
20190123193509 34 270 0.0 1.0 0.00 0.01 0.01 80 928.6
20190123193011 34 298 0.0 1.0 0.00 0.01 0.01 80 928.6
20190123192508 34 270 1.0 2.0 0.00 0.01 0.01 80 928.5
20190123192010 34 317 0.0 1.0 0.00 0.01 0.01 79 928.6
20190123191509 35 294 1.0 3.0 0.00 0.01 0.01 79 928.4
20190123191011 35 270 1.0 3.0 0.00 0.01 0.01 79 928.2
20190123190509 35 274 1.0 3.0 0.00 0.01 0.01 79 928.4
20190123190011 35 270 1.0 3.0 0.00 0.01 0.01 78 928.3
20190123185509 35 45 1.0 2.0 0.00 0.01 0.01 78 928.3
20190123185010 35 270 0.0 1.0 0.00 0.01 0.01 78 928.1
20190123184509 35 289 0.0 1.0 0.00 0.01 0.01 77 928.1
20190123184011 35 270 0.0 1.0 0.00 0.01 0.01 77 928.2
20190123183509 35 270 0.0 1.0 0.00 0.01 0.01 76 928.3
20190123183011 35 303 0.0 1.0 0.00 0.01 0.01 76 928.2
20190123182508 35 270 0.0 0.0 0.00 0.01 0.01 76 928.2
20190123182014 35 270 0.0 1.0 0.00 0.01 0.01 76 928.4
20190123181509 35 270 1.0 2.0 0.00 0.01 0.01 75 928.3
20190123181011 36 270 1.0 2.0 0.00 0.01 0.01 73 928.3
20190123180509 36 270 0.0 1.0 0.00 0.01 0.01 73 928.4
20190123180011 36 270 0.0 3.0 0.00 0.01 0.01 73 928.5
20190123175508 36 24 1.0 3.0 0.00 0.01 0.01 72 928.7
20190123175011 36 20 0.0 1.0 0.00 0.01 0.01 72 928.7
20190123174509 36 284 0.0 2.0 0.00 0.01 0.01 73 928.8
20190123174011 36 344 1.0 2.0 0.00 0.01 0.01 72 928.8
20190123173509 36 26 0.0 2.0 0.00 0.01 0.01 73 928.8
20190123173011 35 20 1.0 2.0 0.00 0.01 0.01 72 928.8
20190123172509 35 279 0.0 3.0 0.00 0.01 0.01 72 928.9
20190123172011 35 301 1.0 3.0 0.00 0.01 0.01 72 928.7
20190123171508 35 77 1.0 3.0 0.00 0.01 0.01 72 928.8
20190123171011 35 0 0.0 2.0 0.00 0.01 0.01 71 928.6
20190123170509 35 287 1.0 2.0 0.00 0.01 0.01 71 928.5
20190123170011 36 55 1.0 3.0 0.00 0.01 0.01 70 928.6
20190123165508 36 270 0.0 1.0 0.00 0.01 0.01 70 928.7
20190123165011 36 287 0.0 1.0 0.00 0.01 0.01 69 928.9
20190123164509 35 275 0.0 1.0 0.00 0.01 0.01 69 928.9
20190123164011 35 315 0.0 0.0 0.00 0.01 0.01 69 928.8
20190123163509 35 0 0.0 2.0 0.00 0.01 0.01 68 928.7
20190123163011 36 92 0.0 2.0 0.00 0.01 0.01 68 928.8
20190123162508 36 68 1.0 3.0 0.00 0.01 0.01 68 928.9
20190123162014 36 270 0.0 1.0 0.00 0.01 0.01 67 928.9
20190123161509 37 251 0.0 1.0 0.00 0.01 0.01 66 928.8
20190123161011 37 315 0.0 1.0 0.00 0.01 0.01 66 928.9
20190123160509 37 318 1.0 2.0 0.00 0.01 0.01 65 928.8
20190123160011 37 293 0.0 3.0 0.00 0.01 0.01 64 928.7
20190123155508 37 142 1.0 3.0 0.00 0.01 0.01 67 928.8
20190123155011 38 320 0.0 2.0 0.00 0.01 0.01 67 928.7
20190123154509 38 256 1.0 3.0 0.00 0.01 0.01 66 928.9
20190123154010 38 359 0.0 3.0 0.00 0.01 0.01 66 928.8
20190123153509 38 270 1.0 3.0 0.00 0.01 0.01 65 928.7
20190123153011 39 278 0.0 1.0 0.00 0.01 0.01 65 928.7
20190123152508 39 296 1.0 3.0 0.00 0.01 0.01 65 928.8
20190123152011 39 9 1.0 3.0 0.00 0.01 0.01 64 928.8
20190123151508 40 59 2.0 6.0 0.00 0.01 0.01 63 928.8
20190123151011 40 270 1.0 6.0 0.00 0.01 0.01 62 928.7
20190123150509 40 40 2.0 6.0 0.00 0.01 0.01 62 928.7
20190123150010 40 270 0.0 3.0 0.00 0.01 0.01 61 928.8
20190123145508 41 31 1.0 3.0 0.00 0.01 0.01 61 928.8
20190123145011 41 322 1.0 3.0 0.00 0.01 0.01 60 928.8
20190123144508 41 286 1.0 6.0 0.00 0.01 0.01 58 928.8
20190123144011 41 276 3.0 6.0 0.00 0.01 0.01 58 928.7
20190123143509 42 270 1.0 3.0 0.00 0.01 0.01 57 928.7
20190123143010 42 302 2.0 3.0 0.00 0.01 0.01 56 928.7
20190123142508 42 270 2.0 3.0 0.00 0.01 0.01 55 928.7
20190123142010 42 270 2.0 3.0 0.00 0.01 0.01 55 928.6
20190123141508 42 270 1.0 3.0 0.00 0.01 0.01 54 928.6
20190123141010 43 270 2.0 3.0 0.00 0.01 0.01 54 928.7
20190123140509 43 270 2.0 3.0 0.00 0.01 0.01 53 928.5
20190123140010 43 271 2.0 3.0 0.00 0.01 0.01 52 928.5
20190123135508 43 270 2.0 3.0 0.00 0.01 0.01 52 928.5
20190123135011 43 295 2.0 3.0 0.00 0.01 0.01 51 928.4
20190123134508 43 270 0.0 3.0 0.00 0.01 0.01 51 928.5
20190123134011 44 271 1.0 3.0 0.00 0.01 0.01 51 928.4
20190123133509 44 291 1.0 3.0 0.00 0.01 0.01 50 928.5
20190123133010 44 270 1.0 3.0 0.00 0.01 0.01 50 928.5
20190123132508 44 52 1.0 3.0 0.00 0.01 0.01 50 928.6
20190123132011 45 40 1.0 3.0 0.00 0.01 0.01 50 928.5
20190123131508 45 299 0.0 1.0 0.00 0.01 0.01 50 928.3
20190123131011 44 315 0.0 1.0 0.00 0.01 0.01 52 928.5
20190123130509 44 326 0.0 2.0 0.00 0.01 0.01 51 928.5
20190123130010 44 54 1.0 2.0 0.00 0.01 0.01 51 928.7
20190123125508 44 270 1.0 3.0 0.00 0.01 0.01 51 928.7
20190123125011 44 270 1.0 3.0 0.00 0.01 0.01 51 928.7
20190123124508 44 284 1.0 3.0 0.00 0.01 0.01 51 928.8
20190123124011 44 270 1.0 2.0 0.00 0.01 0.01 51 928.8
20190123123509 44 270 1.0 3.0 0.00 0.01 0.01 50 928.9
20190123123011 45 291 1.0 3.0 0.00 0.01 0.01 48 928.9
20190123122509 44 270 1.0 3.0 0.00 0.01 0.01 50 929.0
20190123122014 44 270 1.0 3.0 0.00 0.01 0.01 49 929.1
20190123121508 45 302 1.0 3.0 0.00 0.01 0.01 46 929.2
20190123121010 46 286 2.0 3.0 0.00 0.01 0.01 45 928.9
20190123120509 46 318 1.0 3.0 0.00 0.01 0.01 46 929.0
20190123120011 46 299 1.0 3.0 0.00 0.01 0.01 44 929.0
20190123115509 48 306 1.0 3.0 0.00 0.01 0.01 44 929.0
20190123115010 48 79 0.0 2.0 0.00 0.01 0.01 44 929.1
20190123114509 49 180 1.0 3.0 0.00 0.01 0.01 44 929.1
20190123114011 50 81 1.0 2.0 0.00 0.01 0.01 46 929.2
20190123113510 49 315 0.0 2.0 0.00 0.01 0.01 52 929.2
20190123113010 45 292 1.0 2.0 0.00 0.01 0.01 52 929.3
20190123112508 43 270 1.0 3.0 0.00 0.01 0.01 54 929.4
20190123112011 42 303 2.0 3.0 0.00 0.01 0.01 54 929.3
20190123111508 42 270 2.0 3.0 0.00 0.01 0.01 54 929.2
20190123111011 42 270 2.0 3.0 0.00 0.01 0.01 52 929.4
20190123110508 43 270 2.0 3.0 0.00 0.01 0.01 51 929.6
20190123110010 44 280 1.0 3.0 0.00 0.01 0.01 52 929.5
20190123105508 45 288 0.0 3.0 0.00 0.01 0.01 53 929.7
20190123105012 44 270 1.0 3.0 0.00 0.01 0.01 57 929.8
20190123104508 42 297 1.0 5.0 0.00 0.01 0.01 57 930.0
20190123104011 42 270 2.0 6.0 0.00 0.01 0.01 55 929.9
20190123103509 43 270 4.0 6.0 0.00 0.01 0.01 52 929.8
20190123103011 44 270 2.0 6.0 0.00 0.01 0.01 51 930.0
20190123102508 45 292 3.0 7.0 0.00 0.01 0.01 50 930.1
20190123102010 45 318 2.0 6.0 0.00 0.01 0.01 53 930.3
20190123101508 44 276 2.0 5.0 0.00 0.01 0.01 55 930.4
20190123101011 42 288 2.0 3.0 0.00 0.01 0.01 57 930.4
20190123100509 42 270 2.0 3.0 0.00 0.01 0.01 57 930.5
20190123100011 42 296 2.0 6.0 0.00 0.01 0.01 56 930.5
20190123095508 42 280 3.0 7.0 0.00 0.01 0.01 54 930.3
20190123095010 42 270 1.0 5.0 0.00 0.01 0.01 53 930.4
20190123094508 43 312 2.0 5.0 0.00 0.01 0.01 51 930.5
20190123094011 44 270 0.0 5.0 0.00 0.01 0.01 51 930.5
20190123093509 44 297 2.0 5.0 0.00 0.01 0.01 49 930.5
20190123093011 45 270 2.0 5.0 0.00 0.01 0.01 46 930.6
20190123092508 46 270 2.0 3.0 0.00 0.01 0.01 43 930.7
20190123092010 46 275 2.0 3.0 0.00 0.01 0.01 42 930.5
20190123091509 47 270 0.0 2.0 0.00 0.01 0.01 44 930.4
20190123091010 46 270 1.0 2.0 0.00 0.01 0.01 46 930.5
20190123090509 46 4 1.0 2.0 0.01 0.01 0.01 47 930.3
20190123090010 46 331 0.0 2.0 0.01 0.01 0.01 47 930.4
20190123085509 46 19 0.0 3.0 0.01 0.01 0.01 46 930.3
20190123085010 46 30 1.0 3.0 0.01 0.01 0.01 47 930.4
20190123084508 45 45 1.0 2.0 0.01 0.01 0.01 48 930.4
20190123084010 44 341 1.0 3.0 0.01 0.01 0.01 50 930.3
20190123083509 44 7 0.0 3.0 0.01 0.01 0.01 51 930.4
20190123083011 44 29 2.0 3.0 0.01 0.01 0.01 52 930.6
20190123082508 43 318 1.0 2.0 0.01 0.01 0.01 55 930.5
20190123082011 41 332 1.0 3.0 0.01 0.01 0.01 57 930.5
20190123081010 41 16 2.0 3.0 0.01 0.01 0.01 59 930.8
20190123080509 41 0 1.0 5.0 0.00 0.00 0.00 61 930.8
20190123080011 41 30 2.0 5.0 0.00 0.00 0.00 65 931.0
20190123075508 42 13 1.0 3.0 0.00 0.00 0.00 72 930.9
20190123075011 40 16 0.0 2.0 0.00 0.00 0.00 77 931.1
20190123074508 36 338 0.0 3.0 0.00 0.00 0.00 73 931.0
20190123074011 35 7 1.0 3.0 0.00 0.00 0.00 75 930.9
20190123073509 35 19 1.0 3.0 0.00 0.00 0.00 75 930.8
20190123073011 35 315 0.0 2.0 0.00 0.00 0.00 76 931.1
20190123072508 34 337 0.0 2.0 0.00 0.00 0.00 76 931.0
20190123072010 34 288 1.0 3.0 0.00 0.00 0.00 77 931.1
20190123071508 34 270 0.0 3.0 0.00 0.00 0.00 78 931.1
20190123071010 33 33 2.0 3.0 0.00 0.00 0.00 78 930.9
20190123070508 33 15 1.0 3.0 0.00 0.00 0.00 79 931.1
20190123070010 33 41 2.0 6.0 0.00 0.00 0.00 80 931.3
20190123065508 33 42 2.0 3.0 0.00 0.00 0.00 80 931.3
20190123065010 33 355 1.0 3.0 0.00 0.00 0.00 80 931.2
20190123064508 33 45 2.0 5.0 0.00 0.00 0.00 80 931.2
20190123064009 33 26 2.0 5.0 0.00 0.00 0.00 81 931.3
20190123063509 33 22 1.0 3.0 0.00 0.00 0.00 81 931.1
20190123063011 33 356 1.0 2.0 0.00 0.00 0.00 81 931.1
20190123062508 33 23 1.0 3.0 0.00 0.00 0.00 81 931.0
20190123062011 33 15 2.0 5.0 0.00 0.00 0.00 81 931.0
20190123061508 33 17 2.0 3.0 0.00 0.00 0.00 81 931.1
20190123061010 33 16 1.0 3.0 0.00 0.00 0.00 81 931.1
20190123060509 33 31 2.0 3.0 0.00 0.00 0.00 81 931.1
20190123060011 33 349 1.0 3.0 0.00 0.00 0.00 82 931.0
20190123055510 33 0 1.0 3.0 0.00 0.00 0.00 82 931.0
20190123055010 33 332 1.0 5.0 0.00 0.00 0.00 82 930.9
20190123054509 32 8 3.0 6.0 0.00 0.00 0.00 82 930.9
20190123054010 32 6 2.0 5.0 0.00 0.00 0.00 82 930.8
20190123053509 32 45 2.0 5.0 0.00 0.00 0.00 82 930.8
20190123053010 32 60 2.0 5.0 0.00 0.00 0.00 82 931.1
20190123052508 32 39 3.0 5.0 0.00 0.00 0.00 82 930.9
20190123052010 32 0 2.0 5.0 0.00 0.00 0.00 82 930.8
20190123051508 32 9 1.0 3.0 0.00 0.00 0.00 82 930.9
20190123051010 32 351 1.0 3.0 0.00 0.00 0.00 82 930.6
20190123050508 32 128 0.0 2.0 0.00 0.00 0.00 82 930.8
20190123050010 32 347 2.0 3.0 0.00 0.00 0.00 82 930.7
20190123045515 32 7 1.0 3.0 0.00 0.00 0.00 83 930.6
20190123045013 32 33 2.0 3.0 0.00 0.00 0.00 83 930.5
20190123044508 32 305 1.0 6.0 0.00 0.00 0.00 83 930.6
20190123044011 32 34 3.0 6.0 0.00 0.00 0.00 82 930.6
20190123043509 32 17 2.0 5.0 0.00 0.00 0.00 83 930.5
20190123043011 32 332 0.0 2.0 0.00 0.00 0.00 83 930.6
20190123042508 31 354 0.0 1.0 0.00 0.00 0.00 83 930.5
20190123042010 32 0 0.0 2.0 0.00 0.00 0.00 83 930.5
20190123041508 32 21 1.0 2.0 0.00 0.00 0.00 83 930.5
20190123041010 32 352 0.0 1.0 0.00 0.00 0.00 83 930.5
20190123040508 31 0 1.0 1.0 0.00 0.00 0.00 82 930.4
20190123040010 31 0 0.0 2.0 0.00 0.00 0.00 82 930.4
20190123035507 31 279 0.0 1.0 0.00 0.00 0.00 82 930.4
20190123035010 31 331 0.0 1.0 0.00 0.00 0.00 82 930.5
20190123034508 31 0 0.0 2.0 0.00 0.00 0.00 82 930.6
20190123034011 32 254 2.0 3.0 0.00 0.00 0.00 82 930.6
20190123033510 31 0 0.0 2.0 0.00 0.00 0.00 82 930.4
20190123033010 31 355 1.0 2.0 0.00 0.00 0.00 82 930.4
20190123032507 31 321 0.0 1.0 0.00 0.00 0.00 82 930.5
20190123032010 31 271 0.0 1.0 0.00 0.00 0.00 82 930.5
20190123031508 31 278 0.0 1.0 0.00 0.00 0.00 82 930.6
20190123031011 31 270 0.0 1.0 0.00 0.00 0.00 82 930.6
20190123030509 31 303 1.0 2.0 0.00 0.00 0.00 82 930.7
20190123030011 31 295 0.0 2.0 0.00 0.00 0.00 82 930.7
20190123025508 31 303 0.0 3.0 0.00 0.00 0.00 82 930.8
20190123025011 31 344 1.0 3.0 0.00 0.00 0.00 82 930.7
20190123024508 31 336 0.0 1.0 0.00 0.00 0.00 83 930.8
20190123024011 31 302 0.0 2.0 0.00 0.00 0.00 83 931.0
20190123023508 31 351 1.0 3.0 0.00 0.00 0.00 83 931.0
20190123023011 31 16 1.0 3.0 0.00 0.00 0.00 83 930.8
20190123022508 31 45 0.0 2.0 0.00 0.00 0.00 83 931.0
20190123022010 31 16 1.0 3.0 0.00 0.00 0.00 84 931.1
20190123021508 31 11 1.0 3.0 0.00 0.00 0.00 84 931.1
20190123021010 31 0 0.0 3.0 0.00 0.00 0.00 84 931.1
20190123020508 31 333 0.0 1.0 0.00 0.00 0.00 84 931.3
20190123020010 31 271 0.0 3.0 0.00 0.00 0.00 84 931.5
20190123015508 31 341 0.0 2.0 0.00 0.00 0.00 84 931.5
20190123015010 31 0 1.0 2.0 0.00 0.00 0.00 84 931.5
20190123014508 31 20 1.0 2.0 0.00 0.00 0.00 84 931.5
20190123014010 31 349 1.0 3.0 0.00 0.00 0.00 84 931.7
20190123013509 31 322 0.0 3.0 0.00 0.00 0.00 84 931.7
20190123013011 31 354 0.0 2.0 0.00 0.00 0.00 84 931.7
20190123012507 31 344 1.0 2.0 0.00 0.00 0.00 84 931.7
20190123012010 31 0 0.0 1.0 0.00 0.00 0.00 84 931.8
20190123011508 31 315 0.0 1.0 0.00 0.00 0.00 84 931.9
20190123011010 31 270 0.0 1.0 0.00 0.00 0.00 84 932.1
20190123010508 31 270 0.0 1.0 0.00 0.00 0.00 84 931.9
20190123010010 31 315 0.0 1.0 0.00 0.00 0.00 84 932.0
20190123005507 31 323 0.0 1.0 0.00 0.00 0.00 84 931.9
20190123005011 31 270 1.0 2.0 0.00 0.00 0.00 84 932.0
20190123004509 31 284 0.0 2.0 0.00 0.00 0.00 84 932.1
20190123004010 30 0 1.0 2.0 0.00 0.00 0.00 83 932.1
20190123003508 30 3 0.0 3.0 0.00 0.00 0.00 83 932.1
20190123003010 31 45 2.0 3.0 0.00 0.00 0.00 83 932.2
20190123002508 31 8 1.0 3.0 0.00 0.00 0.00 83 932.4
20190123002010 31 314 0.0 1.0 0.00 0.00 0.00 83 932.3
20190123001508 31 315 0.0 1.0 0.00 0.00 0.00 83 932.4
20190123001010 31 331 1.0 3.0 0.00 0.00 0.00 82 932.4
20190123000508 31 45 2.0 3.0 0.00 0.00 0.00 82 932.4
20190123000010 31 3 1.0 3.0 0.00 0.00 0.00 82 932.5
20190122235508 31 41 2.0 3.0 0.00 0.00 0.00 82 932.6
20190122235010 31 359 1.0 3.0 0.00 0.00 0.00 81 932.7
20190122234508 31 25 2.0 3.0 0.00 0.00 0.00 81 932.6
20190122234010 31 12 2.0 3.0 0.00 0.00 0.00 81 932.8
20190122233509 31 0 1.0 3.0 0.00 0.00 0.00 81 932.8
20190122233010 31 270 0.0 1.0 0.00 0.00 0.00 81 932.8
20190122232507 31 261 0.0 2.0 0.00 0.00 0.00 80 933.0
20190122232010 31 69 1.0 3.0 0.00 0.00 0.00 80 933.2
20190122231507 31 8 2.0 3.0 0.00 0.00 0.00 80 933.0
20190122231011 31 315 0.0 1.0 0.00 0.00 0.00 79 933.4
20190122230509 31 292 0.0 1.0 0.00 0.00 0.00 79 933.2
20190122230010 31 270 0.0 1.0 0.00 0.00 0.00 79 933.4
20190122225508 31 270 0.0 1.0 0.00 0.00 0.00 78 933.4
20190122225010 31 270 0.0 1.0 0.00 0.00 0.00 78 933.5
20190122224508 31 282 0.0 2.0 0.00 0.00 0.00 78 933.4
20190122224010 31 270 0.0 1.0 0.00 0.00 0.00 77 933.5
20190122223508 31 323 0.0 1.0 0.00 0.00 0.00 77 933.7
20190122223010 31 284 0.0 1.0 0.00 0.00 0.00 77 933.7
20190122222507 31 295 0.0 1.0 0.00 0.00 0.00 77 933.8
20190122222010 31 330 0.0 2.0 0.00 0.00 0.00 77 933.9
20190122221507 31 0 1.0 7.0 0.00 0.00 0.00 76 934.0
20190122221010 31 300 0.0 7.0 0.00 0.00 0.00 76 934.0
20190122220508 31 270 0.0 1.0 0.00 0.00 0.00 76 934.1
20190122220010 31 299 0.0 3.0 0.00 0.00 0.00 76 934.1
20190122215508 31 270 1.0 2.0 0.00 0.00 0.00 76 934.1
20190122215014 31 288 0.0 3.0 0.00 0.00 0.00 77 934.1
20190122214508 31 276 0.0 2.0 0.00 0.00 0.00 77 934.3